Time,TemperatureF,DewpointF,PressureIn,WindDirection,WindDirectionDegrees,WindSpeedMPH,WindSpeedGustMPH,Humidity,HourlyPrecipIn,Conditions,Clouds,dailyrainin,SoftwareType,DateUTC
2013-09-18 00:01:00,66.6,63.2,30.03,SSE,158,4.0,4.9,89,0.00,,,0.00,WUHU216HW,2013-09-18 05:01:00,
2013-09-18 00:06:00,66.6,63.5,30.03,ESE,113,4.5,6.7,90,0.00,,,0.00,WUHU216HW,2013-09-18 05:06:00,
2013-09-18 00:11:00,66.8,63.7,30.03,SSE,158,7.6,7.6,90,0.00,,,0.00,WUHU216HW,2013-09-18 05:11:00,
2013-09-18 00:16:00,66.8,63.4,30.03,SE,135,4.0,7.6,89,0.00,,,0.00,WUHU216HW,2013-09-18 05:16:00,
2013-09-18 00:21:00,67.0,63.9,30.03,SSE,158,6.9,7.6,90,0.00,,,0.00,WUHU216HW,2013-09-18 05:21:00,
2013-09-18 00:26:00,67.0,63.9,30.03,ESE,113,4.7,6.9,90,0.00,,,0.00,WUHU216HW,2013-09-18 05:26:00,
2013-09-18 00:31:00,67.0,63.9,30.03,SE,135,4.7,7.6,90,0.00,,,0.00,WUHU216HW,2013-09-18 05:31:00,
2013-09-18 00:32:00,67.0,63.9,30.03,SE,135,4.7,7.6,90,0.00,,,0.00,WUHU216HW,2013-09-18 05:32:00,
2013-09-18 00:37:00,67.0,63.9,30.03,SSE,158,3.8,7.6,90,0.00,,,0.00,WUHU216HW,2013-09-18 05:37:00,
2013-09-18 00:42:00,67.0,63.5,30.03,SSE,158,4.0,6.9,89,0.00,,,0.00,WUHU216HW,2013-09-18 05:42:00,
2013-09-18 00:47:00,67.0,63.9,30.03,South,180,2.7,4.0,90,0.00,,,0.00,WUHU216HW,2013-09-18 05:47:00,
2013-09-18 00:52:00,67.0,63.9,30.03,SE,135,4.5,4.5,90,0.00,,,0.00,WUHU216HW,2013-09-18 05:52:00,
2013-09-18 00:57:00,67.0,63.9,30.03,SE,135,3.4,4.5,90,0.00,,,0.00,WUHU216HW,2013-09-18 05:57:00,
2013-09-18 01:02:00,67.0,63.9,30.03,SSE,158,4.0,4.5,90,0.00,,,0.00,WUHU216HW,2013-09-18 06:02:00,
2013-09-18 01:07:00,67.0,63.9,30.03,SSE,158,2.5,4.0,90,0.00,,,0.00,WUHU216HW,2013-09-18 06:07:00,
2013-09-18 01:12:00,67.0,63.5,30.03,SE,135,3.4,4.0,89,0.00,,,0.00,WUHU216HW,2013-09-18 06:12:00,
2013-09-18 01:17:00,67.1,64.1,30.02,SE,135,4.7,4.7,90,0.00,,,0.00,WUHU216HW,2013-09-18 06:17:00,
2013-09-18 01:22:00,67.1,64.1,30.03,SSE,158,2.5,4.7,90,0.00,,,0.00,WUHU216HW,2013-09-18 06:22:00,
2013-09-18 01:27:00,67.1,64.1,30.02,SE,135,4.7,6.0,90,0.00,,,0.00,WUHU216HW,2013-09-18 06:27:00,
2013-09-18 01:32:00,67.3,63.9,30.02,SE,135,6.9,6.9,89,0.00,,,0.00,WUHU216HW,2013-09-18 06:32:00,
2013-09-18 01:37:00,67.3,64.3,30.02,SSE,158,1.6,6.9,90,0.00,,,0.00,WUHU216HW,2013-09-18 06:37:00,
2013-09-18 01:42:00,67.3,63.9,30.02,South,180,2.5,4.3,89,0.00,,,0.00,WUHU216HW,2013-09-18 06:42:00,
2013-09-18 01:47:00,67.5,64.1,30.01,South,180,4.3,4.3,89,0.00,,,0.00,WUHU216HW,2013-09-18 06:47:00,
2013-09-18 01:52:00,67.5,64.1,30.01,SSE,158,2.5,4.3,89,0.00,,,0.00,WUHU216HW,2013-09-18 06:52:00,
2013-09-18 01:57:00,67.7,64.3,30.01,East,90,4.3,4.3,89,0.00,,,0.00,WUHU216HW,2013-09-18 06:57:00,
2013-09-18 02:02:00,67.7,64.3,30.01,SE,135,4.5,4.5,89,0.00,,,0.00,WUHU216HW,2013-09-18 07:02:00,
2013-09-18 02:07:00,67.7,64.3,30.01,ESE,113,3.4,5.4,89,0.00,,,0.00,WUHU216HW,2013-09-18 07:07:00,
2013-09-18 02:12:00,67.7,64.3,30.01,South,180,5.4,5.4,89,0.00,,,0.00,WUHU216HW,2013-09-18 07:12:00,
2013-09-18 02:17:00,67.7,64.3,30.01,ESE,113,4.9,6.3,89,0.00,,,0.00,WUHU216HW,2013-09-18 07:17:00,
2013-09-18 02:22:00,67.9,64.4,30.01,ESE,113,4.0,6.3,89,0.00,,,0.00,WUHU216HW,2013-09-18 07:22:00,
2013-09-18 02:27:00,67.7,64.3,30.01,SE,135,4.5,5.4,89,0.00,,,0.00,WUHU216HW,2013-09-18 07:27:00,
2013-09-18 02:32:00,67.7,64.3,30.01,SE,135,3.6,5.4,89,0.00,,,0.00,WUHU216HW,2013-09-18 07:32:00,
2013-09-18 02:37:00,67.7,64.3,30.01,SSE,158,3.6,7.4,89,0.00,,,0.00,WUHU216HW,2013-09-18 07:37:00,
2013-09-18 02:42:00,67.7,64.3,30.01,SSE,158,4.3,7.4,89,0.00,,,0.00,WUHU216HW,2013-09-18 07:42:00,
2013-09-18 02:47:00,67.7,64.3,30.00,SE,135,3.4,5.6,89,0.00,,,0.00,WUHU216HW,2013-09-18 07:47:00,
2013-09-18 02:52:00,67.7,64.3,30.00,SSE,158,2.2,4.3,89,0.00,,,0.00,WUHU216HW,2013-09-18 07:52:00,
2013-09-18 02:57:00,67.5,64.4,30.00,SE,135,3.4,5.8,90,0.00,,,0.00,WUHU216HW,2013-09-18 07:57:00,
2013-09-18 03:02:00,67.5,64.4,30.00,South,180,2.9,5.8,90,0.00,,,0.00,WUHU216HW,2013-09-18 08:02:00,
2013-09-18 03:07:00,67.5,64.4,30.00,South,180,4.7,4.7,90,0.00,,,0.00,WUHU216HW,2013-09-18 08:07:00,
2013-09-18 03:12:00,67.5,64.4,30.00,ESE,113,3.4,4.7,90,0.00,,,0.00,WUHU216HW,2013-09-18 08:12:00,
2013-09-18 03:17:00,67.5,64.4,30.00,ESE,113,5.1,5.1,90,0.00,,,0.00,WUHU216HW,2013-09-18 08:17:00,
2013-09-18 03:22:00,67.3,64.3,29.99,SSE,158,3.4,5.1,90,0.00,,,0.00,WUHU216HW,2013-09-18 08:22:00,
2013-09-18 03:27:00,67.3,64.3,29.99,ESE,113,3.4,3.8,90,0.00,,,0.00,WUHU216HW,2013-09-18 08:27:00,
2013-09-18 03:32:00,67.3,64.3,29.99,SE,135,4.9,4.9,90,0.00,,,0.00,WUHU216HW,2013-09-18 08:32:00,
2013-09-18 03:37:00,67.3,64.3,29.99,SSE,158,3.4,7.6,90,0.00,,,0.00,WUHU216HW,2013-09-18 08:37:00,
2013-09-18 03:42:00,67.3,64.3,29.99,South,180,1.8,7.6,90,0.00,,,0.00,WUHU216HW,2013-09-18 08:42:00,
2013-09-18 03:47:00,67.3,64.3,29.98,SSW,203,1.6,4.7,90,0.00,,,0.00,WUHU216HW,2013-09-18 08:47:00,
2013-09-18 03:52:00,67.3,64.3,29.98,ENE,68,4.0,4.3,90,0.00,,,0.00,WUHU216HW,2013-09-18 08:52:00,
2013-09-18 03:57:00,67.3,64.3,29.98,SSE,158,6.7,6.7,90,0.00,,,0.00,WUHU216HW,2013-09-18 08:57:00,
2013-09-18 04:02:00,67.3,64.3,29.98,SSE,158,4.0,6.7,90,0.00,,,0.00,WUHU216HW,2013-09-18 09:02:00,
2013-09-18 04:07:00,67.3,64.3,29.97,ESE,113,4.7,6.7,90,0.00,,,0.00,WUHU216HW,2013-09-18 09:07:00,
2013-09-18 04:12:00,67.3,64.3,29.97,SE,135,3.6,5.6,90,0.00,,,0.00,WUHU216HW,2013-09-18 09:12:00,
2013-09-18 04:17:00,67.3,64.3,29.97,SE,135,5.6,5.6,90,0.00,,,0.00,WUHU216HW,2013-09-18 09:17:00,
2013-09-18 04:22:00,67.3,64.3,29.97,SE,135,2.5,5.6,90,0.00,,,0.00,WUHU216HW,2013-09-18 09:22:00,
2013-09-18 04:27:00,67.3,64.3,29.97,SSE,158,6.5,6.5,90,0.00,,,0.00,WUHU216HW,2013-09-18 09:27:00,
2013-09-18 04:32:00,67.1,64.1,29.97,SE,135,4.7,6.5,90,0.00,,,0.00,WUHU216HW,2013-09-18 09:32:00,
2013-09-18 04:37:00,67.1,64.1,29.97,SSE,158,4.0,6.5,90,0.00,,,0.00,WUHU216HW,2013-09-18 09:37:00,
2013-09-18 04:42:00,67.1,64.1,29.97,SE,135,4.0,5.4,90,0.00,,,0.00,WUHU216HW,2013-09-18 09:42:00,
2013-09-18 04:47:00,67.1,64.1,29.97,SE,135,3.4,6.9,90,0.00,,,0.00,WUHU216HW,2013-09-18 09:47:00,
2013-09-18 04:52:00,67.1,64.1,29.97,SE,135,4.0,6.9,90,0.00,,,0.00,WUHU216HW,2013-09-18 09:52:00,
2013-09-18 04:57:00,67.1,64.1,29.97,South,180,2.2,5.1,90,0.00,,,0.00,WUHU216HW,2013-09-18 09:57:00,
2013-09-18 05:02:00,67.1,64.1,29.97,SSE,158,4.0,5.8,90,0.00,,,0.00,WUHU216HW,2013-09-18 10:02:00,
2013-09-18 05:07:00,67.1,64.1,29.97,ENE,68,4.3,5.8,90,0.00,,,0.00,WUHU216HW,2013-09-18 10:07:00,
2013-09-18 05:12:00,67.1,64.1,29.97,SE,135,2.5,4.3,90,0.00,,,0.00,WUHU216HW,2013-09-18 10:12:00,
2013-09-18 05:17:00,67.1,64.1,29.97,ESE,113,3.1,4.3,90,0.00,,,0.00,WUHU216HW,2013-09-18 10:17:00,
2013-09-18 05:22:00,67.1,64.1,29.97,ESE,113,3.1,4.3,90,0.00,,,0.00,WUHU216HW,2013-09-18 10:22:00,
2013-09-18 05:27:00,67.1,64.1,29.97,SSE,158,2.7,5.6,90,0.00,,,0.00,WUHU216HW,2013-09-18 10:27:00,
2013-09-18 05:32:00,67.1,64.1,29.97,SSE,158,3.6,5.4,90,0.00,,,0.00,WUHU216HW,2013-09-18 10:32:00,
2013-09-18 05:37:00,67.1,64.1,29.97,ESE,113,3.4,5.8,90,0.00,,,0.00,WUHU216HW,2013-09-18 10:37:00,
2013-09-18 05:42:00,67.3,64.3,29.97,SSE,158,3.1,5.8,90,0.00,,,0.00,WUHU216HW,2013-09-18 10:42:00,
2013-09-18 05:47:00,67.3,64.3,29.97,South,180,2.7,4.7,90,0.00,,,0.00,WUHU216HW,2013-09-18 10:47:00,
2013-09-18 05:52:00,67.3,64.3,29.97,SSE,158,3.4,4.9,90,0.00,,,0.00,WUHU216HW,2013-09-18 10:52:00,
2013-09-18 05:57:00,67.3,64.3,29.97,SSW,203,4.0,5.4,90,0.01,,,0.01,WUHU216HW,2013-09-18 10:57:00,
2013-09-18 06:02:00,67.3,64.3,29.97,SSW,203,3.4,5.4,90,0.01,,,0.01,WUHU216HW,2013-09-18 11:02:00,
2013-09-18 06:07:00,67.3,64.3,29.97,SSE,158,2.9,4.7,90,0.01,,,0.01,WUHU216HW,2013-09-18 11:07:00,
2013-09-18 06:12:00,67.3,64.3,29.97,SE,135,3.6,4.0,90,0.01,,,0.01,WUHU216HW,2013-09-18 11:12:00,
2013-09-18 06:17:00,67.3,64.3,29.98,South,180,2.5,4.0,90,0.01,,,0.01,WUHU216HW,2013-09-18 11:17:00,
2013-09-18 06:22:00,67.5,64.4,29.98,SE,135,3.6,3.6,90,0.01,,,0.01,WUHU216HW,2013-09-18 11:22:00,
2013-09-18 06:27:00,67.5,64.4,29.98,SE,135,4.0,4.0,90,0.01,,,0.01,WUHU216HW,2013-09-18 11:27:00,
2013-09-18 06:32:00,67.5,64.1,29.98,South,180,2.7,4.0,89,0.01,,,0.01,WUHU216HW,2013-09-18 11:32:00,
2013-09-18 06:37:00,67.5,64.4,29.97,SSW,203,2.5,6.3,90,0.01,,,0.01,WUHU216HW,2013-09-18 11:37:00,
2013-09-18 06:42:00,67.5,64.4,29.97,ESE,113,2.2,6.3,90,0.01,,,0.01,WUHU216HW,2013-09-18 11:42:00,
2013-09-18 06:47:00,67.5,64.1,29.97,SSE,158,3.1,6.5,89,0.01,,,0.01,WUHU216HW,2013-09-18 11:47:00,
2013-09-18 06:52:00,67.5,64.1,29.98,SSE,158,2.5,6.5,89,0.00,,,0.01,WUHU216HW,2013-09-18 11:52:00,
2013-09-18 06:57:00,67.5,64.4,29.98,SSE,158,4.7,5.8,90,0.00,,,0.01,WUHU216HW,2013-09-18 11:57:00,
2013-09-18 07:02:00,67.5,64.4,29.97,SSW,203,2.9,5.8,90,0.00,,,0.01,WUHU216HW,2013-09-18 12:02:00,
2013-09-18 07:07:00,67.5,64.1,29.98,ESE,113,6.3,6.3,89,0.00,,,0.01,WUHU216HW,2013-09-18 12:07:00,
2013-09-18 07:12:00,67.5,64.1,29.98,South,180,2.5,6.3,89,0.00,,,0.01,WUHU216HW,2013-09-18 12:12:00,
2013-09-18 07:17:00,67.3,63.9,29.98,South,180,2.9,6.3,89,0.00,,,0.01,WUHU216HW,2013-09-18 12:17:00,
2013-09-18 07:22:00,67.3,64.3,29.98,SE,135,4.7,5.8,90,0.00,,,0.01,WUHU216HW,2013-09-18 12:22:00,
2013-09-18 07:27:00,67.5,64.4,29.99,South,180,3.4,5.8,90,0.00,,,0.01,WUHU216HW,2013-09-18 12:27:00,
2013-09-18 07:32:00,67.7,64.6,29.98,SE,135,4.0,5.1,90,0.00,,,0.01,WUHU216HW,2013-09-18 12:32:00,
2013-09-18 07:37:00,67.7,64.3,29.98,SSW,203,2.5,6.7,89,0.00,,,0.01,WUHU216HW,2013-09-18 12:37:00,
2013-09-18 07:42:00,67.7,64.6,29.98,SE,135,3.1,6.7,90,0.00,,,0.01,WUHU216HW,2013-09-18 12:42:00,
2013-09-18 07:47:00,67.9,64.4,29.99,SE,135,3.8,4.0,89,0.00,,,0.01,WUHU216HW,2013-09-18 12:47:00,
2013-09-18 07:52:00,68.0,64.6,29.99,SSE,158,4.0,4.7,89,0.00,,,0.01,WUHU216HW,2013-09-18 12:52:00,
2013-09-18 07:57:00,68.0,64.6,29.99,SE,135,4.7,4.7,89,0.00,,,0.01,WUHU216HW,2013-09-18 12:57:00,
2013-09-18 08:02:00,68.2,64.8,29.99,SSE,158,2.0,4.7,89,0.00,,,0.01,WUHU216HW,2013-09-18 13:02:00,
2013-09-18 08:07:00,68.4,65.0,29.99,ESE,113,4.5,4.7,89,0.00,,,0.01,WUHU216HW,2013-09-18 13:07:00,
2013-09-18 08:12:00,68.8,65.3,29.99,South,180,3.8,4.5,89,0.00,,,0.01,WUHU216HW,2013-09-18 13:12:00,
2013-09-18 08:17:00,68.9,65.5,29.99,SSE,158,2.5,4.5,89,0.00,,,0.01,WUHU216HW,2013-09-18 13:17:00,
2013-09-18 08:22:00,69.3,65.9,29.98,WSW,248,4.7,4.7,89,0.00,,,0.01,WUHU216HW,2013-09-18 13:22:00,
2013-09-18 08:27:00,69.5,65.7,29.98,South,180,3.4,4.7,88,0.00,,,0.01,WUHU216HW,2013-09-18 13:27:00,
2013-09-18 08:32:00,69.8,66.1,29.98,SSE,158,4.3,4.7,88,0.00,,,0.01,WUHU216HW,2013-09-18 13:32:00,
2013-09-18 08:37:00,70.2,66.4,29.98,SSE,158,4.0,4.3,88,0.00,,,0.01,WUHU216HW,2013-09-18 13:37:00,
2013-09-18 08:42:00,70.6,66.8,29.98,SE,135,2.9,4.3,88,0.00,,,0.01,WUHU216HW,2013-09-18 13:42:00,
2013-09-18 08:47:00,70.9,66.9,29.98,SE,135,3.1,4.0,87,0.00,,,0.01,WUHU216HW,2013-09-18 13:47:00,
2013-09-18 08:52:00,71.3,66.9,29.98,SSW,203,4.7,4.7,86,0.00,,,0.01,WUHU216HW,2013-09-18 13:52:00,
2013-09-18 08:57:00,71.3,66.9,29.98,SE,135,3.4,4.7,86,0.00,,,0.01,WUHU216HW,2013-09-18 13:57:00,
2013-09-18 09:02:00,71.3,66.9,29.98,SSE,158,3.8,4.3,86,0.00,,,0.01,WUHU216HW,2013-09-18 14:02:00,
2013-09-18 09:08:00,71.5,67.1,29.98,South,180,1.1,4.9,86,0.00,,,0.01,WUHU216HW,2013-09-18 14:08:00,
2013-09-18 09:13:00,71.5,67.1,29.98,SSW,203,3.4,4.9,86,0.00,,,0.01,WUHU216HW,2013-09-18 14:13:00,
2013-09-18 09:18:00,71.6,67.2,29.98,SSW,203,4.7,4.7,86,0.00,,,0.01,WUHU216HW,2013-09-18 14:18:00,
2013-09-18 09:23:00,72.2,67.4,29.98,SSW,203,4.0,4.7,85,0.00,,,0.01,WUHU216HW,2013-09-18 14:23:00,
2013-09-18 09:29:00,72.5,67.4,29.98,South,180,3.8,4.0,84,0.00,,,0.01,WUHU216HW,2013-09-18 14:29:00,
2013-09-18 09:34:00,72.9,67.4,29.98,SW,225,8.1,8.9,83,0.00,,,0.01,WUHU216HW,2013-09-18 14:34:00,
2013-09-18 09:39:00,73.3,68.1,29.99,SSE,158,5.4,8.9,84,0.00,,,0.01,WUHU216HW,2013-09-18 14:39:00,
2013-09-18 09:44:00,74.3,68.6,29.98,South,180,9.2,9.2,82,0.00,,,0.01,WUHU216HW,2013-09-18 14:44:00,
2013-09-18 09:49:00,74.9,68.8,29.98,SSW,203,4.7,9.2,81,0.00,,,0.01,WUHU216HW,2013-09-18 14:49:00,
2013-09-18 09:54:00,75.2,69.1,29.98,SW,225,3.4,15.0,81,0.00,,,0.01,WUHU216HW,2013-09-18 14:54:00,
2013-09-18 09:59:00,75.4,68.5,29.98,WSW,248,10.3,15.0,79,0.00,,,0.01,WUHU216HW,2013-09-18 14:59:00,
2013-09-18 10:04:00,76.1,68.8,29.98,SSW,203,4.9,10.3,78,0.00,,,0.01,WUHU216HW,2013-09-18 15:04:00,
2013-09-18 10:09:00,76.0,68.2,29.98,SSW,203,4.7,12.8,77,0.00,,,0.01,WUHU216HW,2013-09-18 15:09:00,
2013-09-18 10:14:00,76.0,68.7,29.98,WSW,248,4.9,12.8,78,0.00,,,0.01,WUHU216HW,2013-09-18 15:14:00,
2013-09-18 10:19:00,75.8,68.5,29.98,SSW,203,2.2,6.9,78,0.00,,,0.01,WUHU216HW,2013-09-18 15:19:00,
2013-09-18 10:24:00,75.8,68.5,29.98,SSW,203,12.3,12.3,78,0.00,,,0.01,WUHU216HW,2013-09-18 15:24:00,
2013-09-18 10:29:00,76.0,68.7,29.98,East,90,7.6,12.3,78,0.00,,,0.01,WUHU216HW,2013-09-18 15:29:00,
2013-09-18 10:34:00,76.5,68.4,29.97,SW,225,5.1,11.2,76,0.00,,,0.01,WUHU216HW,2013-09-18 15:34:00,
2013-09-18 10:39:00,77.2,69.0,29.97,SSW,203,14.5,14.5,76,0.00,,,0.01,WUHU216HW,2013-09-18 15:39:00,
2013-09-18 10:44:00,77.6,69.4,29.97,NW,315,2.9,14.5,76,0.00,,,0.01,WUHU216HW,2013-09-18 15:44:00,
2013-09-18 10:49:00,78.1,69.1,29.97,SW,225,11.0,11.0,74,0.00,,,0.01,WUHU216HW,2013-09-18 15:49:00,
2013-09-18 10:54:00,78.7,69.7,29.97,SE,135,8.7,11.0,74,0.00,,,0.01,WUHU216HW,2013-09-18 15:54:00,
2013-09-18 10:59:00,79.0,69.2,29.97,SSW,203,10.7,11.0,72,0.00,,,0.01,WUHU216HW,2013-09-18 15:59:00,
2013-09-18 11:01:00,79.0,69.2,29.97,SSW,203,10.7,10.7,72,0.00,,,0.01,WUHU216HW,2013-09-18 16:01:00,
2013-09-18 11:06:00,79.2,69.4,29.97,SW,225,11.0,11.0,72,0.00,,,0.01,WUHU216HW,2013-09-18 16:06:00,
2013-09-18 11:11:00,79.6,69.8,29.97,SW,225,7.6,11.0,72,0.00,,,0.01,WUHU216HW,2013-09-18 16:11:00,
2013-09-18 11:16:00,80.3,69.7,29.97,WSW,248,9.8,9.8,70,0.00,,,0.01,WUHU216HW,2013-09-18 16:16:00,
2013-09-18 11:21:00,80.5,69.8,29.96,SSW,203,6.5,10.5,70,0.00,,,0.01,WUHU216HW,2013-09-18 16:21:00,
2013-09-18 11:26:00,80.6,70.0,29.96,SSE,158,6.3,11.6,70,0.00,,,0.01,WUHU216HW,2013-09-18 16:26:00,
2013-09-18 11:31:00,81.5,69.9,29.96,SW,225,6.5,11.6,68,0.00,,,0.01,WUHU216HW,2013-09-18 16:31:00,
2013-09-18 11:36:00,82.1,69.9,29.96,WSW,248,6.5,8.5,67,0.00,,,0.01,WUHU216HW,2013-09-18 16:36:00,
2013-09-18 11:41:00,82.8,70.2,29.95,SW,225,8.7,9.2,66,0.00,,,0.01,WUHU216HW,2013-09-18 16:41:00,
2013-09-18 11:46:00,83.0,70.4,29.95,SSW,203,7.6,12.1,66,0.00,,,0.01,WUHU216HW,2013-09-18 16:46:00,
2013-09-18 11:51:00,83.5,70.5,29.95,SSW,203,7.2,12.1,65,0.00,,,0.01,WUHU216HW,2013-09-18 16:51:00,
2013-09-18 11:56:00,84.6,71.1,29.95,SW,225,6.9,8.7,64,0.00,,,0.01,WUHU216HW,2013-09-18 16:56:00,
2013-09-18 12:01:00,84.6,70.2,29.95,South,180,10.7,13.4,62,0.00,,,0.01,WUHU216HW,2013-09-18 17:01:00,
2013-09-18 12:06:00,85.3,69.9,29.95,SW,225,11.6,13.4,60,0.00,,,0.01,WUHU216HW,2013-09-18 17:06:00,
2013-09-18 12:11:00,85.5,70.1,29.95,SW,225,9.4,14.5,60,0.00,,,0.01,WUHU216HW,2013-09-18 17:11:00,
2013-09-18 12:16:00,86.0,70.0,29.95,WSW,248,7.2,14.5,59,0.00,,,0.01,WUHU216HW,2013-09-18 17:16:00,
2013-09-18 12:21:00,86.4,69.8,29.94,SSW,203,6.0,13.6,58,0.00,,,0.01,WUHU216HW,2013-09-18 17:21:00,
2013-09-18 12:26:00,86.6,69.5,29.94,SSW,203,4.9,13.6,57,0.00,,,0.01,WUHU216HW,2013-09-18 17:26:00,
2013-09-18 12:31:00,86.9,69.8,29.94,WSW,248,4.5,12.5,57,0.00,,,0.01,WUHU216HW,2013-09-18 17:31:00,
2013-09-18 12:36:00,87.1,68.9,29.94,SSW,203,12.8,12.8,55,0.00,,,0.01,WUHU216HW,2013-09-18 17:36:00,
2013-09-18 12:41:00,86.9,69.3,29.94,WSW,248,7.2,12.8,56,0.00,,,0.01,WUHU216HW,2013-09-18 17:41:00,
2013-09-18 12:46:00,86.9,69.3,29.94,South,180,12.1,12.1,56,0.00,,,0.01,WUHU216HW,2013-09-18 17:46:00,
2013-09-18 12:51:00,87.1,68.9,29.93,WSW,248,13.2,13.2,55,0.00,,,0.01,WUHU216HW,2013-09-18 17:51:00,
2013-09-18 12:56:00,87.3,69.1,29.93,WSW,248,8.7,13.2,55,0.00,,,0.01,WUHU216HW,2013-09-18 17:56:00,
2013-09-18 13:01:00,88.0,69.3,29.93,SW,225,8.3,8.7,54,0.00,,,0.01,WUHU216HW,2013-09-18 18:01:00,
2013-09-18 13:06:00,88.2,69.5,29.93,WSW,248,9.8,9.8,54,0.00,,,0.01,WUHU216HW,2013-09-18 18:06:00,
2013-09-18 13:11:00,88.0,68.8,29.93,SW,225,12.5,15.7,53,0.00,,,0.01,WUHU216HW,2013-09-18 18:11:00,
2013-09-18 13:16:00,88.7,69.9,29.93,SSE,158,4.0,15.7,54,0.00,,,0.01,WUHU216HW,2013-09-18 18:16:00,
2013-09-18 13:21:00,88.9,69.6,29.93,SSW,203,5.4,12.5,53,0.00,,,0.01,WUHU216HW,2013-09-18 18:21:00,
2013-09-18 13:26:00,87.8,69.7,29.92,WSW,248,10.5,10.5,55,0.00,,,0.01,WUHU216HW,2013-09-18 18:26:00,
2013-09-18 13:31:00,88.2,70.0,29.92,SW,225,10.5,10.5,55,0.00,,,0.01,WUHU216HW,2013-09-18 18:31:00,
2013-09-18 13:36:00,88.6,70.3,29.92,SSW,203,2.2,10.5,55,0.00,,,0.01,WUHU216HW,2013-09-18 18:36:00,
2013-09-18 13:41:00,89.3,70.9,29.92,SSW,203,5.4,10.5,55,0.00,,,0.01,WUHU216HW,2013-09-18 18:41:00,
2013-09-18 13:46:00,89.8,69.9,29.92,NW,315,8.9,10.5,52,0.00,,,0.01,WUHU216HW,2013-09-18 18:46:00,
2013-09-18 13:51:00,90.0,70.6,29.91,SW,225,5.4,8.9,53,0.00,,,0.01,WUHU216HW,2013-09-18 18:51:00,
2013-09-18 13:56:00,89.5,70.0,29.91,West,270,8.1,11.0,53,0.00,,,0.01,WUHU216HW,2013-09-18 18:56:00,
2013-09-18 14:01:00,89.6,69.7,29.91,SSW,203,5.4,13.6,52,0.00,,,0.01,WUHU216HW,2013-09-18 19:01:00,
2013-09-18 14:06:00,89.8,69.9,29.91,ESE,113,5.1,13.6,52,0.00,,,0.01,WUHU216HW,2013-09-18 19:06:00,
2013-09-18 14:11:00,90.4,70.3,29.90,SSW,203,12.8,12.8,52,0.00,,,0.01,WUHU216HW,2013-09-18 19:11:00,
2013-09-18 14:16:00,90.7,70.7,29.90,SSE,158,7.4,12.8,52,0.00,,,0.01,WUHU216HW,2013-09-18 19:16:00,
2013-09-18 14:21:00,90.7,70.7,29.90,West,270,5.8,7.4,52,0.00,,,0.01,WUHU216HW,2013-09-18 19:21:00,
2013-09-18 14:26:00,90.5,69.9,29.90,SE,135,5.4,11.9,51,0.00,,,0.01,WUHU216HW,2013-09-18 19:26:00,
2013-09-18 14:32:00,91.1,70.4,29.90,ESE,113,6.7,11.9,51,0.00,,,0.01,WUHU216HW,2013-09-18 19:32:00,
2013-09-18 14:37:00,90.9,68.4,29.89,SW,225,17.4,17.4,48,0.00,,,0.01,WUHU216HW,2013-09-18 19:37:00,
2013-09-18 14:42:00,90.4,69.8,29.89,SE,135,5.4,17.4,51,0.00,,,0.01,WUHU216HW,2013-09-18 19:42:00,
2013-09-18 14:47:00,90.4,70.3,29.89,SSW,203,8.7,9.8,52,0.00,,,0.01,WUHU216HW,2013-09-18 19:47:00,
2013-09-18 14:52:00,90.7,70.7,29.89,SSW,203,11.4,11.4,52,0.00,,,0.01,WUHU216HW,2013-09-18 19:52:00,
2013-09-18 14:57:00,90.2,70.1,29.89,NNW,338,7.8,11.4,52,0.00,,,0.01,WUHU216HW,2013-09-18 19:57:00,
2013-09-18 15:02:00,90.2,70.1,29.89,SW,225,4.9,9.2,52,0.00,,,0.01,WUHU216HW,2013-09-18 20:02:00,
2013-09-18 15:07:00,89.5,70.6,29.88,SSW,203,4.0,14.3,54,0.00,,,0.01,WUHU216HW,2013-09-18 20:07:00,
2013-09-18 15:12:00,90.0,70.6,29.88,SW,225,10.5,14.3,53,0.00,,,0.01,WUHU216HW,2013-09-18 20:12:00,
2013-09-18 15:17:00,90.2,70.1,29.88,ESE,113,6.7,10.5,52,0.00,,,0.01,WUHU216HW,2013-09-18 20:17:00,
2013-09-18 15:22:00,90.2,70.7,29.88,SSW,203,9.2,10.5,53,0.00,,,0.01,WUHU216HW,2013-09-18 20:22:00,
2013-09-18 15:27:00,90.2,70.7,29.87,SSW,203,9.8,9.8,53,0.00,,,0.01,WUHU216HW,2013-09-18 20:27:00,
2013-09-18 15:32:00,90.4,70.8,29.87,SSE,158,5.4,9.8,53,0.00,,,0.01,WUHU216HW,2013-09-18 20:32:00,
2013-09-18 15:37:00,90.4,70.8,29.87,SSE,158,5.8,9.8,53,0.00,,,0.01,WUHU216HW,2013-09-18 20:37:00,
2013-09-18 15:42:00,90.2,70.1,29.87,SSE,158,14.1,14.1,52,0.00,,,0.01,WUHU216HW,2013-09-18 20:42:00,
2013-09-18 15:47:00,90.4,70.8,29.86,South,180,4.5,14.1,53,0.00,,,0.01,WUHU216HW,2013-09-18 20:47:00,
2013-09-18 15:52:00,90.7,71.2,29.86,East,90,8.5,8.5,53,0.00,,,0.01,WUHU216HW,2013-09-18 20:52:00,
2013-09-18 15:57:00,90.2,70.7,29.86,South,180,6.5,8.5,53,0.00,,,0.01,WUHU216HW,2013-09-18 20:57:00,
2013-09-18 16:02:00,89.6,70.7,29.87,SE,135,11.2,11.2,54,0.00,,,0.01,WUHU216HW,2013-09-18 21:02:00,
2013-09-18 16:07:00,89.6,71.3,29.87,WSW,248,7.6,11.2,55,0.00,,,0.01,WUHU216HW,2013-09-18 21:07:00,
2013-09-18 16:12:00,89.6,71.3,29.87,SSE,158,2.2,11.0,55,0.00,,,0.01,WUHU216HW,2013-09-18 21:12:00,
2013-09-18 16:17:00,90.0,71.7,29.86,SE,135,5.8,8.1,55,0.00,,,0.01,WUHU216HW,2013-09-18 21:17:00,
2013-09-18 16:22:00,90.4,71.4,29.86,SSE,158,9.6,9.6,54,0.00,,,0.01,WUHU216HW,2013-09-18 21:22:00,
2013-09-18 16:27:00,90.9,71.4,29.86,ESE,113,6.7,9.6,53,0.00,,,0.01,WUHU216HW,2013-09-18 21:27:00,
2013-09-18 16:32:00,90.5,71.0,29.86,SE,135,8.3,8.3,53,0.00,,,0.01,WUHU216HW,2013-09-18 21:32:00,
2013-09-18 16:37:00,90.9,71.4,29.86,SW,225,5.8,8.3,53,0.00,,,0.01,WUHU216HW,2013-09-18 21:37:00,
2013-09-18 16:42:00,90.4,70.8,29.86,SSW,203,7.6,9.2,53,0.00,,,0.01,WUHU216HW,2013-09-18 21:42:00,
2013-09-18 16:47:00,90.7,70.7,29.86,SSE,158,9.2,9.2,52,0.00,,,0.01,WUHU216HW,2013-09-18 21:47:00,
2013-09-18 16:52:00,90.4,70.3,29.86,SSW,203,7.2,9.2,52,0.00,,,0.01,WUHU216HW,2013-09-18 21:52:00,
2013-09-18 16:57:00,90.4,70.3,29.86,SW,225,8.5,8.5,52,0.00,,,0.01,WUHU216HW,2013-09-18 21:57:00,
2013-09-18 17:02:00,90.0,70.0,29.86,ESE,113,3.8,8.5,52,0.00,,,0.01,WUHU216HW,2013-09-18 22:02:00,
2013-09-18 17:07:00,90.2,70.1,29.86,South,180,8.3,8.3,52,0.00,,,0.01,WUHU216HW,2013-09-18 22:07:00,
2013-09-18 17:12:00,90.7,70.7,29.86,SE,135,4.7,8.3,52,0.00,,,0.01,WUHU216HW,2013-09-18 22:12:00,
2013-09-18 17:17:00,90.7,70.7,29.86,SE,135,4.0,8.3,52,0.00,,,0.01,WUHU216HW,2013-09-18 22:17:00,
2013-09-18 17:22:00,90.7,70.7,29.86,SE,135,4.7,4.9,52,0.00,,,0.01,WUHU216HW,2013-09-18 22:22:00,
2013-09-18 17:27:00,90.4,70.3,29.86,SSW,203,5.4,9.2,52,0.00,,,0.01,WUHU216HW,2013-09-18 22:27:00,
2013-09-18 17:33:00,90.7,70.1,29.86,South,180,4.5,9.2,51,0.00,,,0.01,WUHU216HW,2013-09-18 22:33:00,
2013-09-18 17:38:00,90.0,70.0,29.86,South,180,7.4,8.1,52,0.00,,,0.01,WUHU216HW,2013-09-18 22:38:00,
2013-09-18 17:43:00,90.0,69.5,29.86,East,90,5.4,8.1,51,0.00,,,0.01,WUHU216HW,2013-09-18 22:43:00,
2013-09-18 17:48:00,90.2,69.6,29.86,WNW,293,5.8,8.1,51,0.00,,,0.01,WUHU216HW,2013-09-18 22:48:00,
2013-09-18 17:53:00,89.8,69.9,29.86,SSE,158,6.3,8.1,52,0.00,,,0.01,WUHU216HW,2013-09-18 22:53:00,
2013-09-18 17:58:00,89.3,69.8,29.86,SSE,158,3.4,6.3,53,0.00,,,0.01,WUHU216HW,2013-09-18 22:58:00,
2013-09-18 18:03:00,88.9,69.6,29.86,ESE,113,4.9,6.9,53,0.00,,,0.01,WUHU216HW,2013-09-18 23:03:00,
2013-09-18 18:08:00,88.2,70.0,29.86,SSE,158,4.9,6.9,55,0.00,,,0.01,WUHU216HW,2013-09-18 23:08:00,
2013-09-18 18:13:00,87.7,70.0,29.86,SSW,203,4.5,9.4,56,0.00,,,0.01,WUHU216HW,2013-09-18 23:13:00,
2013-09-18 18:18:00,87.3,69.7,29.86,South,180,4.5,9.4,56,0.00,,,0.01,WUHU216HW,2013-09-18 23:18:00,
2013-09-18 18:23:00,87.3,70.2,29.86,SSW,203,5.8,6.3,57,0.00,,,0.01,WUHU216HW,2013-09-18 23:23:00,
2013-09-18 18:28:00,86.9,69.8,29.86,SE,135,4.3,5.8,57,0.00,,,0.01,WUHU216HW,2013-09-18 23:28:00,
2013-09-18 18:33:00,86.8,70.2,29.86,SSE,158,4.0,6.3,58,0.00,,,0.01,WUHU216HW,2013-09-18 23:33:00,
2013-09-18 18:38:00,86.2,69.7,29.86,NW,315,1.8,6.3,58,0.00,,,0.01,WUHU216HW,2013-09-18 23:38:00,
2013-09-18 18:43:00,86.0,70.0,29.86,SSE,158,2.2,4.9,59,0.00,,,0.01,WUHU216HW,2013-09-18 23:43:00,
2013-09-18 18:48:00,85.7,69.8,29.86,SSW,203,1.6,4.9,59,0.00,,,0.01,WUHU216HW,2013-09-18 23:48:00,
2013-09-18 18:53:00,85.5,70.1,29.86,West,270,3.1,4.9,60,0.00,,,0.01,WUHU216HW,2013-09-18 23:53:00,
2013-09-18 18:58:00,85.1,69.8,29.87,SSE,158,2.7,3.1,60,0.00,,,0.01,WUHU216HW,2013-09-18 23:58:00,
2013-09-18 19:03:00,85.0,70.0,29.86,South,180,3.4,3.4,61,0.00,,,0.01,WUHU216HW,2013-09-19 00:03:00,
2013-09-18 19:08:00,84.6,69.8,29.86,SE,135,1.3,3.8,61,0.00,,,0.01,WUHU216HW,2013-09-19 00:08:00,
2013-09-18 19:13:00,84.2,69.8,29.87,ESE,113,0.4,3.8,62,0.00,,,0.01,WUHU216HW,2013-09-19 00:13:00,
2013-09-18 19:18:00,83.9,69.5,29.87,SSW,203,1.8,2.5,62,0.00,,,0.01,WUHU216HW,2013-09-19 00:18:00,
2013-09-18 19:23:00,83.7,69.8,29.87,SSW,203,2.9,2.9,63,0.00,,,0.01,WUHU216HW,2013-09-19 00:23:00,
2013-09-18 19:28:00,83.5,70.0,29.87,South,180,1.8,2.9,64,0.00,,,0.01,WUHU216HW,2013-09-19 00:28:00,
2013-09-18 19:33:00,83.2,69.7,29.87,SE,135,2.5,2.9,64,0.00,,,0.01,WUHU216HW,2013-09-19 00:33:00,
2013-09-18 19:38:00,82.8,69.8,29.87,SSE,158,3.6,4.0,65,0.00,,,0.01,WUHU216HW,2013-09-19 00:38:00,
2013-09-18 19:43:00,82.8,69.8,29.87,SSE,158,2.0,4.0,65,0.00,,,0.01,WUHU216HW,2013-09-19 00:43:00,
2013-09-18 19:48:00,82.6,69.1,29.87,SE,135,4.0,4.0,64,0.00,,,0.01,WUHU216HW,2013-09-19 00:48:00,
2013-09-18 19:53:00,82.4,69.4,29.88,ESE,113,3.6,4.0,65,0.00,,,0.01,WUHU216HW,2013-09-19 00:53:00,
2013-09-18 19:59:00,82.1,69.0,29.88,SSE,158,3.6,4.0,65,0.00,,,0.01,WUHU216HW,2013-09-19 00:59:00,
2013-09-18 20:04:00,82.1,69.5,29.88,SE,135,3.4,3.6,66,0.00,,,0.01,WUHU216HW,2013-09-19 01:04:00,
2013-09-18 20:09:00,81.7,69.2,29.88,SE,135,2.0,3.6,66,0.00,,,0.01,WUHU216HW,2013-09-19 01:09:00,
2013-09-18 20:14:00,81.7,69.2,29.88,SE,135,3.6,3.6,66,0.00,,,0.01,WUHU216HW,2013-09-19 01:14:00,
2013-09-18 20:19:00,81.5,69.5,29.89,SE,135,4.3,4.3,67,0.00,,,0.01,WUHU216HW,2013-09-19 01:19:00,
2013-09-18 20:24:00,81.4,69.3,29.89,ESE,113,4.0,4.3,67,0.00,,,0.01,WUHU216HW,2013-09-19 01:24:00,
2013-09-18 20:29:00,81.0,69.5,29.89,SE,135,3.6,4.3,68,0.00,,,0.01,WUHU216HW,2013-09-19 01:29:00,
2013-09-18 20:34:00,81.0,69.5,29.89,South,180,2.7,3.6,68,0.00,,,0.01,WUHU216HW,2013-09-19 01:34:00,
2013-09-18 20:39:00,80.8,69.8,29.89,SE,135,5.1,5.1,69,0.00,,,0.01,WUHU216HW,2013-09-19 01:39:00,
2013-09-18 20:44:00,80.6,69.6,29.89,South,180,2.7,5.1,69,0.00,,,0.01,WUHU216HW,2013-09-19 01:44:00,
2013-09-18 20:49:00,80.5,69.8,29.89,ESE,113,3.6,5.1,70,0.00,,,0.01,WUHU216HW,2013-09-19 01:49:00,
2013-09-18 20:54:00,80.3,69.7,29.89,SE,135,3.6,4.7,70,0.00,,,0.01,WUHU216HW,2013-09-19 01:54:00,
2013-09-18 20:59:00,80.3,70.0,29.89,SSE,158,2.2,5.6,71,0.00,,,0.01,WUHU216HW,2013-09-19 01:59:00,
2013-09-18 21:04:00,80.1,69.8,29.89,SSE,158,3.4,5.6,71,0.00,,,0.01,WUHU216HW,2013-09-19 02:04:00,
2013-09-18 21:09:00,79.9,69.7,29.89,SSE,158,3.8,4.0,71,0.00,,,0.01,WUHU216HW,2013-09-19 02:09:00,
2013-09-18 21:14:00,79.7,69.5,29.89,South,180,3.1,3.8,71,0.00,,,0.01,WUHU216HW,2013-09-19 02:14:00,
2013-09-18 21:19:00,79.6,69.8,29.89,SSE,158,2.5,4.3,72,0.00,,,0.01,WUHU216HW,2013-09-19 02:19:00,
2013-09-18 21:24:00,79.4,69.6,29.89,South,180,4.0,4.3,72,0.00,,,0.01,WUHU216HW,2013-09-19 02:24:00,
2013-09-18 21:29:00,79.2,69.4,29.90,South,180,2.9,4.0,72,0.00,,,0.01,WUHU216HW,2013-09-19 02:29:00,
2013-09-18 21:34:00,79.2,69.8,29.90,SE,135,1.8,2.9,73,0.00,,,0.01,WUHU216HW,2013-09-19 02:34:00,
2013-09-18 21:39:00,79.0,69.6,29.90,South,180,3.1,3.1,73,0.00,,,0.01,WUHU216HW,2013-09-19 02:39:00,
2013-09-18 21:44:00,78.8,69.4,29.90,South,180,2.5,3.1,73,0.00,,,0.01,WUHU216HW,2013-09-19 02:44:00,
2013-09-18 21:49:00,78.5,69.5,29.90,SE,135,2.2,3.1,74,0.00,,,0.01,WUHU216HW,2013-09-19 02:49:00,
2013-09-18 21:54:00,78.3,69.7,29.90,South,180,2.5,2.5,75,0.00,,,0.01,WUHU216HW,2013-09-19 02:54:00,
2013-09-18 21:59:00,78.1,69.5,29.90,SE,135,3.4,3.6,75,0.00,,,0.01,WUHU216HW,2013-09-19 02:59:00,
2013-09-18 22:04:00,78.1,69.5,29.90,SSE,158,2.7,3.6,75,0.00,,,0.01,WUHU216HW,2013-09-19 03:04:00,
2013-09-18 22:09:00,78.1,69.5,29.90,SE,135,2.9,3.4,75,0.00,,,0.01,WUHU216HW,2013-09-19 03:09:00,
2013-09-18 22:14:00,78.1,69.5,29.90,South,180,2.5,3.4,75,0.00,,,0.01,WUHU216HW,2013-09-19 03:14:00,
2013-09-18 22:19:00,77.9,69.3,29.90,SW,225,3.1,3.4,75,0.00,,,0.01,WUHU216HW,2013-09-19 03:19:00,
2013-09-18 22:24:00,77.8,69.2,29.90,SE,135,1.6,3.1,75,0.00,,,0.01,WUHU216HW,2013-09-19 03:24:00,
2013-09-18 22:29:00,77.8,69.2,29.90,SSW,203,1.6,3.1,75,0.00,,,0.01,WUHU216HW,2013-09-19 03:29:00,
2013-09-18 22:34:00,77.6,69.4,29.90,South,180,2.0,3.4,76,0.00,,,0.01,WUHU216HW,2013-09-19 03:34:00,
2013-09-18 22:39:00,77.4,69.2,29.90,SE,135,3.4,3.4,76,0.00,,,0.01,WUHU216HW,2013-09-19 03:39:00,
2013-09-18 22:44:00,77.2,69.4,29.90,SE,135,3.1,3.4,77,0.00,,,0.01,WUHU216HW,2013-09-19 03:44:00,
2013-09-18 22:50:00,77.0,69.2,29.90,SSE,158,1.8,3.4,77,0.00,,,0.01,WUHU216HW,2013-09-19 03:50:00,
2013-09-18 22:55:00,76.9,69.5,29.90,SSE,158,3.4,3.4,78,0.00,,,0.01,WUHU216HW,2013-09-19 03:55:00,
2013-09-18 23:00:00,76.7,69.7,29.90,SE,135,2.7,3.4,79,0.00,,,0.01,WUHU216HW,2013-09-19 04:00:00,
2013-09-18 23:01:00,76.7,69.7,29.90,SSE,158,2.5,3.4,79,0.00,,,0.01,WUHU216HW,2013-09-19 04:01:00,
2013-09-18 23:06:00,76.5,69.5,29.90,SSE,158,2.0,4.5,79,0.00,,,0.01,WUHU216HW,2013-09-19 04:06:00,
2013-09-18 23:08:00,76.5,69.5,29.90,SSE,158,2.0,4.5,79,0.00,,,0.01,WUHU216HW,2013-09-19 04:08:00,
2013-09-18 23:13:00,76.3,69.4,29.90,South,180,3.4,3.4,79,0.00,,,0.01,WUHU216HW,2013-09-19 04:13:00,
2013-09-18 23:18:00,76.3,69.4,29.90,ESE,113,2.9,3.4,79,0.00,,,0.01,WUHU216HW,2013-09-19 04:18:00,
2013-09-18 23:23:00,76.0,69.8,29.90,ESE,113,4.3,4.3,81,0.00,,,0.01,WUHU216HW,2013-09-19 04:23:00,
2013-09-18 23:28:00,76.0,69.8,29.90,SE,135,2.9,5.1,81,0.00,,,0.01,WUHU216HW,2013-09-19 04:28:00,
2013-09-18 23:33:00,75.8,69.6,29.90,South,180,2.5,5.1,81,0.00,,,0.01,WUHU216HW,2013-09-19 04:33:00,
2013-09-18 23:38:00,75.6,69.8,29.90,South,180,2.7,5.1,82,0.00,,,0.01,WUHU216HW,2013-09-19 04:38:00,
2013-09-18 23:43:00,75.6,69.8,29.90,WSW,248,3.4,3.4,82,0.00,,,0.01,WUHU216HW,2013-09-19 04:43:00,
2013-09-18 23:48:00,75.4,69.6,29.90,SSW,203,1.8,3.4,82,0.00,,,0.01,WUHU216HW,2013-09-19 04:48:00,
2013-09-18 23:53:00,75.4,69.6,29.90,South,180,1.8,3.4,82,0.00,,,0.00,WUHU216HW,2013-09-19 04:53:00,
2013-09-18 23:58:00,75.2,69.5,29.90,SSE,158,3.4,3.4,82,0.00,,,0.00,WUHU216HW,2013-09-19 04:58:00,